TimeAKST,TemperatureF,Dew PointF,Humidity,Sea Level PressureIn,VisibilityMPH,Wind Direction,Wind SpeedMPH,Gust SpeedMPH,PrecipitationIn,Events,Conditions,WindDirDegrees,DateUTC
12:53 AM,35.1,35.1,100,30.40,10.0,NW,5.8,-,N/A,,Overcast,310,2013-03-04 09:53:00
1:53 AM,35.1,35.1,100,30.40,10.0,NW,5.8,-,N/A,,Overcast,320,2013-03-04 10:53:00
3:20 AM,33.8,33.8,100,30.38,10.0,WNW,8.1,-,N/A,,Mostly Cloudy,300,2013-03-04 12:20:00
3:34 AM,33.8,33.8,100,30.38,10.0,WNW,8.1,-,N/A,,Scattered Clouds,300,2013-03-04 12:34:00
3:53 AM,34.0,33.1,96,30.38,10.0,WNW,8.1,-,N/A,,Clear,300,2013-03-04 12:53:00
4:27 AM,33.8,33.8,100,30.38,10.0,WNW,6.9,-,N/A,,Mostly Cloudy,300,2013-03-04 13:27:00
4:53 AM,33.1,32.0,96,30.38,10.0,WNW,6.9,-,N/A,,Mostly Cloudy,290,2013-03-04 13:53:00
5:12 AM,33.8,32.0,93,30.37,10.0,NW,6.9,-,N/A,,Scattered Clouds,310,2013-03-04 14:12:00
5:53 AM,33.1,30.9,92,30.38,10.0,NW,4.6,-,N/A,,Clear,320,2013-03-04 14:53:00
5:57 AM,32.0,30.2,93,30.37,10.0,NW,4.6,-,N/A,,Clear,310,2013-03-04 14:57:00
6:53 AM,32.0,30.9,96,30.37,10.0,NW,6.9,-,N/A,,Partly Cloudy,310,2013-03-04 15:53:00
7:53 AM,34.0,32.0,92,30.36,10.0,NNW,9.2,-,N/A,,Partly Cloudy,330,2013-03-04 16:53:00
8:53 AM,35.1,32.0,89,30.36,10.0,NNW,10.4,-,N/A,,Partly Cloudy,340,2013-03-04 17:53:00
9:53 AM,37.9,32.0,79,30.35,10.0,NNW,10.4,-,N/A,,Partly Cloudy,330,2013-03-04 18:53:00
10:53 AM,41.0,30.0,65,30.33,10.0,NW,10.4,-,N/A,,Partly Cloudy,320,2013-03-04 19:53:00
11:53 AM,43.0,28.0,56,30.32,10.0,NW,11.5,-,N/A,,Clear,320,2013-03-04 20:53:00
12:53 PM,45.0,23.0,42,30.30,10.0,NW,9.2,-,N/A,,Clear,320,2013-03-04 21:53:00
1:53 PM,45.0,21.9,40,30.28,10.0,NW,6.9,-,N/A,,Clear,310,2013-03-04 22:53:00
2:53 PM,46.0,18.0,33,30.26,10.0,Calm,Calm,-,N/A,,Clear,0,2013-03-04 23:53:00
3:53 PM,45.0,17.1,33,30.24,10.0,Variable,3.5,-,N/A,,Clear,0,2013-03-05 00:53:00
4:53 PM,39.0,21.9,50,30.23,10.0,Calm,Calm,-,N/A,,Clear,0,2013-03-05 01:53:00
5:53 PM,36.0,21.9,57,30.22,10.0,Calm,Calm,-,N/A,,Clear,0,2013-03-05 02:53:00
6:53 PM,33.1,25.0,72,30.23,10.0,Calm,Calm,-,N/A,,Clear,0,2013-03-05 03:53:00
7:53 PM,32.0,27.0,82,30.22,10.0,Calm,Calm,-,N/A,,Clear,0,2013-03-05 04:53:00
8:53 PM,32.0,28.0,85,30.21,10.0,WNW,3.5,-,N/A,,Clear,300,2013-03-05 05:53:00
9:53 PM,33.1,25.0,72,30.22,10.0,NW,4.6,-,N/A,,Clear,310,2013-03-05 06:53:00
10:53 PM,33.1,28.9,85,30.21,10.0,NNW,6.9,-,N/A,,Clear,340,2013-03-05 07:53:00
11:53 PM,34.0,27.0,75,30.20,10.0,NW,6.9,-,N/A,,Clear,320,2013-03-05 08:53:00